Regional Weather Roundup
Issued by NWS

Home | Current Version | Previous Version | Graphics & Text | Print | Product List | Glossary On
Versions: 1 2 3 4 5 6 7 8 9 10 11 12 13 14 15 16 17 18 19 20 21 22 23 24 25 26 27 28 29 30 31 32 33 34 35 36 37 38 39 40 41 42 43 44 45 46 47 48 49 50
910
ASUS43 KLOT 311603
RWRIL

ILLINOIS REGIONAL WEATHER ROUNDUP
NATIONAL WEATHER SERVICE CHICAGO/ROMEOVILLE IL
1100 AM CDT TUE MAY 31 2016

NOTE: "FAIR" INDICATES FEW OR NO CLOUDS BELOW 12,000 FEET WITH NO
SIGNIFICANT WEATHER AND/OR OBSTRUCTIONS TO VISIBILITY.

* THESE STATIONS ARE NOT UNDER NWS QUALITY CONTROL. THEY ALSO MAY NOT
  REPORT WEATHER SUCH AS PRECIPITATION OR FOG.

ILZ001-002-007-009-015-016-024-311700-
NORTHWEST ILLINOIS

CITY           SKY/WX    TMP DP  RH WIND       PRES   REMARKS
MOLINE         CLOUDY    76  63  64 VRB3      29.95F
STERLING*      LGT RAIN  67  61  81 SE7       29.97S
$$

ILZ003-004-008-010-011-017-018-311700-
NORTH CENTRAL ILLINOIS

CITY           SKY/WX    TMP DP  RH WIND       PRES   REMARKS
ROCKFORD       PTSUNNY   78  58  49 SW13G23   30.01R
FREEPORT*      CLOUDY    63  58  86 N3        30.01R
ROCHELLE*      CLOUDY    79  60  51 S26G36    29.99R HX  80
$$

ILZ005-006-012>014-019>023-311700-
NORTHEAST ILLINOIS

CITY           SKY/WX    TMP DP  RH WIND       PRES   REMARKS
CHICAGO-OHARE  PTSUNNY   80  55  42 E13G18    29.98F HX  80
CHICAGO-MIDWAY PTSUNNY   81  57  43 E12G18    29.98F HX  81
AURORA         MOSUNNY   81  60  48 E15       29.97F HX  82
LANSING*       MOSUNNY   80  57  45 SE6       29.99S HX  80
WAUKEGAN       SUNNY     69  55  60 E9        30.01S
DUPAGE AIRPORT SUNNY     80  57  45 SE13      29.97F HX  80
WHEELING       MOSUNNY   77  54  44 SE9       30.01S
NORTHERLY ISL    N/A     68  58  70 NE3         N/A
$$

LMZ740>746-311700-
SOUTHERN LAKE MICHIGAN

STATION/POSITION SKY/WX   TEMP    WIND        PRES    VSBY  WAVE
                          AIR SEA DIR/SP/G                  HT/PER
                          (F)     (DEG/KT/KT) (MB)    (MI)  (FT/S)
SOUTHERN BUOY              57 54   80/  8/  8 1016.3          0
WILMETTE HARBOR            64 60  120/  2/  2   N/A           1
HARRISON CRIB              65      90/  7/  7   N/A
BURNHAM HARBOR             68      40/  4/  5   N/A
CALUMET HARBOR             66      40/  5/  6 1015.3F
BURNS HARBOR               75     100/  6/ 11 1016.3F
MICHIGAN CITY              75     110/  8/ 11   N/A
MICHIGAN CITY 6N           66 62   70/  4/  4   N/A           0
ST. JOSEPH                 71 65   90/  8/ 10   N/A           1
$$

ILZ025>027-034>036-040-047-049-050-058-095>099-311700-
WEST-CENTRAL ILLINOIS

CITY           SKY/WX    TMP DP  RH WIND       PRES   REMARKS
QUINCY         CLOUDY    76  61  59 VRB7      29.98S
MACOMB*        SUNNY     76  61  58 SW5       29.99F
PITTSFIELD*    CLOUDY    74  64  68 SE7       30.01R
$$

ILZ028>032-037-038-041>044-048-051>054-059>061-311700-
CENTRAL ILLINOIS

CITY           SKY/WX    TMP DP  RH WIND       PRES   REMARKS
BLOOMINGTON    MOSUNNY   81  65  58 S10       29.99S HX  83
DECATUR        SUNNY     81  62  52 S8        29.98S HX  82
PEORIA         CLOUDY    78  62  57 W8        29.97S HX  80
SPRINGFIELD    TSTM      65  62  90 W13       30.03R VSB 1
TAYLORVILLE    NOT AVBL
$$

ILZ033-039-045-046-055>057-062-063-311700-
EAST-CENTRAL ILLINOIS

CITY           SKY/WX    TMP DP  RH WIND       PRES   REMARKS
CHAMPAIGN      CLOUDY    83  59  44 S10       29.98S HX  83
MATTOON        CLOUDY    78  63  59 SE6       29.98S HX  80
$$

ILZ079-100>102-311700-
SOUTHWEST ILLINOIS

CITY           SKY/WX    TMP DP  RH WIND       PRES   REMARKS
ALTON          CLOUDY    70  64  83 NE7       29.99S
BELLEVILLE     PTSUNNY   76  67  71 NE6       29.97S
CAHOKIA*       LGT RAIN  71  65  81 NW7       29.98S
SPARTA*        CLOUDY    73  65  74 CALM      30.00R
$$

ILZ064>066-069>071-074>076-080>082-084>086-088>090-092>094-311700-
SOUTH-CENTRAL ILLINOIS

CITY           SKY/WX    TMP DP  RH WIND       PRES   REMARKS
CARBONDALE     CLOUDY    81  64  56 SE7       29.98R HX  82
EFFINGHAM*     SUNNY     83  65  54 S3        30.00R HX  85
MARION         PTSUNNY   82  66  57 SE8       29.98  HX  85
MT. VERNON     CLOUDY    82  64  54 SE8       29.99R HX  84
SALEM*         MOSUNNY   85  64  50 S6        29.98R HX  86
$$

ILZ067-068-072-073-078-083-087-091-311700-
SOUTHEAST ILLINOIS

CITY           SKY/WX    TMP DP  RH WIND       PRES   REMARKS
LAWRENCEVILLE  SUNNY     86  58  38 SE12      29.98S HX  85
FLORA*         SUNNY     85  62  44 SE9       29.98S HX  85
HARRISBURG*    CLOUDY    82  65  55 SE8       29.99R HX  84
ROBINSON*      MOSUNNY   82  64  54 SE8       29.99R HX  84
$$

ABBREVIATIONS USED IN REMARKS
   TC - TEMPERATURE IN CELSIUS
  WCI - WIND CHILL INDEX
   HX - HEAT INDEX
  VSB - VISIBILITY
$$





USA.gov is the U.S. government's official web portal to all federal, state and local government web resources and services.